Kremmling, CO

2:59 PM MDT on September 20, 2017 (GMT -0600)
Kremmling

Weather History for K20V - November, 2013

Change the Weather History Date:

Sunday, November 17, 2013

  Actual Average Record
Temperature  
Mean Temperature 30 °F -  
Max Temperature 41 °F - 55 °F (2008)
Min Temperature 19 °F - 3 °F (2014)
Degree Days  
Heating Degree Days 35    
Month to date heating degree days  
Moisture  
Dew Point 21 °F    
Average Humidity 70    
Maximum Humidity 93    
Minimum Humidity 42    
Precipitation  
Precipitation 0.00 in - 0.02 in (2005)
Sea Level Pressure  
Sea Level Pressure 30.00 in    
Wind  
Wind Speed 9 mph (NW)    
Max Wind Speed 28 mph    
Max Gust Speed 34 mph    
Visibility 9 miles    
Events Snow    
T = Trace of Precipitation, MM = Missing Value Source: NWS Daily Summary

Daily Weather History Graph

Daily Weather History Graph

Search for Another Location

Airport or City:

Trip Planner

Search our weather history database for the weather conditions in past years. The results will help you decide how hot, cold, wet, or windy it might be!

Date:

Astronomy

Nov. 17, 2013 Rise Set
Actual Time 6:53 AM MST 4:47 PM MST
Civil Twilight 6:24 AM MST 5:16 PM MST
Nautical Twilight 5:51 AM MST 5:49 PM MST
Astronomical Twilight 5:19 AM MST 6:21 PM MST
Moon 5:06 PM MST (11/17) 6:50 AM MST (11/17)
Length of Visible Light 10h 52m
Length of Day
9h 53m
Full, 100% of the Moon is Illuminated
Nov 17
Full
Nov 25
Last Quarter
Dec 2
New
Dec 9
First Quarter
Dec 17
Full

Hourly Weather History & Observations

Time (MST) Temp. Windchill Dew Point Humidity Pressure Visibility Wind Dir Wind Speed Gust Speed Precip Events Conditions
12:15 AM 30.2 °F 20.8 °F 17.6 °F 60% 29.64 in 10.0 mi West 11.5 mph - N/A   Clear
12:36 AM 30.2 °F 21.9 °F 17.6 °F 60% 29.64 in 10.0 mi WSW 9.2 mph - N/A   Mostly Cloudy
12:56 AM 32.0 °F 23.0 °F 17.6 °F 55% 29.63 in 10.0 mi West 11.5 mph 18.4 mph N/A   Overcast
1:16 AM 30.2 °F 21.3 °F 17.6 °F 60% 29.65 in 10.0 mi WSW 10.4 mph - N/A   Overcast
1:36 AM 32.0 °F 20.5 °F 19.4 °F 60% 29.65 in 10.0 mi WSW 18.4 mph 24.2 mph N/A   Mostly Cloudy
1:56 AM 32.0 °F 21.2 °F 17.6 °F 55% 29.65 in 10.0 mi WSW 16.1 mph 27.6 mph N/A   Mostly Cloudy
2:16 AM 32.0 °F 18.1 °F 19.4 °F 60% 29.66 in 10.0 mi West 27.6 mph 34.5 mph N/A Snow Light Snow
2:36 AM 30.2 °F 21.3 °F 23.0 °F 75% 29.69 in 3.0 mi West 10.4 mph 25.3 mph N/A Snow Light Snow
2:56 AM 28.4 °F 15.1 °F 23.0 °F 80% 29.71 in 0.5 mi NNW 20.7 mph 26.5 mph N/A Snow Heavy Snow
3:16 AM 28.4 °F 19.1 °F 23.0 °F 80% 29.74 in 0.5 mi WNW 10.4 mph - N/A Snow Heavy Snow
3:36 AM 28.4 °F 18.5 °F 23.0 °F 80% 29.75 in 2.5 mi NNW 11.5 mph 18.4 mph N/A Snow Light Snow
3:56 AM 28.4 °F 19.1 °F 21.2 °F 74% 29.76 in 10.0 mi NNW 10.4 mph 18.4 mph N/A Snow Light Snow
4:16 AM 28.4 °F 18.5 °F 21.2 °F 74% 29.77 in 4.0 mi North 11.5 mph 19.6 mph N/A Snow Light Snow
4:36 AM 28.4 °F 18.0 °F 21.2 °F 74% 29.79 in 2.5 mi NNW 12.7 mph 19.6 mph N/A Snow Light Snow
4:56 AM 26.6 °F 17.5 °F 21.2 °F 80% 29.81 in 4.0 mi North 9.2 mph 16.1 mph N/A Snow Light Snow
5:16 AM 28.4 °F 19.1 °F 21.2 °F 74% 29.83 in 7.0 mi NNW 10.4 mph 18.4 mph N/A Snow Light Snow
5:36 AM 28.4 °F 18.0 °F 19.4 °F 69% 29.84 in 7.0 mi North 12.7 mph 17.3 mph N/A Snow Light Snow
5:56 AM 26.6 °F 16.8 °F 19.4 °F 74% 29.86 in 5.0 mi North 10.4 mph 20.7 mph N/A Snow Light Snow
6:16 AM 24.8 °F 14.6 °F 19.4 °F 80% 29.87 in 7.0 mi North 10.4 mph - N/A Snow Light Snow
6:36 AM 24.8 °F 16.9 °F 19.4 °F 80% 29.88 in 5.0 mi North 6.9 mph - N/A Snow Light Snow
6:56 AM 24.8 °F 17.9 °F 19.4 °F 80% 29.90 in 7.0 mi North 5.8 mph - N/A Snow Light Snow
7:16 AM 24.8 °F - 19.4 °F 80% 29.92 in 2.5 mi Calm Calm - N/A Snow Light Snow
7:36 AM 24.8 °F 17.9 °F 21.2 °F 86% 29.94 in 7.0 mi WSW 5.8 mph - N/A Snow Light Snow
7:56 AM 26.6 °F 20.0 °F 21.2 °F 80% 29.96 in 3.0 mi West 5.8 mph - N/A Snow Light Snow
8:16 AM 26.6 °F 18.2 °F 23.0 °F 86% 29.97 in 10.0 mi West 8.1 mph - N/A   Overcast
8:36 AM 28.4 °F 20.4 °F 23.0 °F 80% 29.99 in 7.0 mi WSW 8.1 mph - N/A Snow Light Snow
8:56 AM 30.2 °F 21.3 °F 24.8 °F 80% 30.01 in 10.0 mi West 10.4 mph - N/A   Overcast
9:16 AM 30.2 °F 21.3 °F 21.2 °F 69% 30.01 in 10.0 mi WNW 10.4 mph - N/A   Overcast
9:35 AM 32.0 °F 24.2 °F 23.0 °F 69% 30.02 in 10.0 mi NNW 9.2 mph - N/A   Mostly Cloudy
9:56 AM 30.2 °F 22.6 °F 21.2 °F 69% 30.04 in 10.0 mi North 8.1 mph - N/A   Mostly Cloudy
10:16 AM 30.2 °F 26.7 °F 21.2 °F 69% 30.06 in 10.0 mi North 3.5 mph - N/A   Overcast
10:36 AM 32.0 °F - 23.0 °F 69% 30.06 in 10.0 mi Calm Calm - N/A   Overcast
10:56 AM 33.8 °F 30.8 °F 23.0 °F 65% 30.06 in 10.0 mi ESE 3.5 mph - N/A   Overcast
11:16 AM 33.8 °F 29.6 °F 23.0 °F 65% 30.06 in 10.0 mi NE 4.6 mph - N/A   Overcast
11:36 AM 33.8 °F 28.6 °F 23.0 °F 65% 30.06 in 10.0 mi East 5.8 mph - N/A   Overcast
11:55 AM 35.6 °F 29.9 °F 24.8 °F 65% 30.06 in 10.0 mi ESE 6.9 mph - N/A   Overcast
12:16 PM 35.6 °F 29.2 °F 24.8 °F 65% 30.05 in 10.0 mi NE 8.1 mph - N/A   Overcast
12:36 PM 35.6 °F 31.7 °F 23.0 °F 60% 30.05 in 10.0 mi NNE 4.6 mph - N/A   Overcast
12:56 PM 37.4 °F 33.8 °F 24.8 °F 60% 30.06 in 10.0 mi SSE 4.6 mph - N/A   Overcast
1:16 PM 35.6 °F 28.6 °F 26.6 °F 70% 30.06 in 10.0 mi ESE 9.2 mph - N/A   Mostly Cloudy
1:36 PM 35.6 °F 28.6 °F 23.0 °F 60% 30.07 in 10.0 mi East 9.2 mph - N/A   Overcast
1:56 PM 35.6 °F 30.7 °F 23.0 °F 60% 30.07 in 10.0 mi East 5.8 mph - N/A   Overcast
2:16 PM 37.4 °F 34.9 °F 23.0 °F 56% 30.08 in 10.0 mi ESE 3.5 mph - N/A   Mostly Cloudy
2:36 PM 37.4 °F - 21.2 °F 52% 30.08 in 10.0 mi Calm Calm - N/A   Overcast
2:56 PM 37.4 °F 30.3 °F 19.4 °F 48% 30.09 in 10.0 mi WSW 10.4 mph - N/A   Overcast
3:16 PM 41.0 °F 33.5 °F 19.4 °F 42% 30.10 in 10.0 mi WSW 13.8 mph 20.7 mph N/A   Overcast
3:36 PM 39.2 °F 35.0 °F 19.4 °F 45% 30.11 in 10.0 mi WSW 5.8 mph - N/A   Overcast
3:56 PM 39.2 °F 32.0 °F 19.4 °F 45% 30.10 in 10.0 mi West 11.5 mph - N/A   Overcast
4:16 PM 37.4 °F 31.4 °F 21.2 °F 52% 30.10 in 10.0 mi West 8.1 mph - N/A   Mostly Cloudy
4:36 PM 37.4 °F 32.1 °F 21.2 °F 52% 30.11 in 10.0 mi West 6.9 mph 16.1 mph N/A   Mostly Cloudy
4:56 PM 37.4 °F 33.8 °F 21.2 °F 52% 30.12 in 10.0 mi WNW 4.6 mph - N/A   Overcast
5:16 PM 35.6 °F 32.8 °F 23.0 °F 60% 30.12 in 10.0 mi North 3.5 mph - N/A   Overcast
5:35 PM 35.6 °F 31.7 °F 24.8 °F 65% 30.14 in 10.0 mi NNW 4.6 mph - N/A   Overcast
5:56 PM 35.6 °F 32.8 °F 23.0 °F 60% 30.14 in 10.0 mi NNW 3.5 mph - N/A   Overcast
6:16 PM 33.8 °F - 23.0 °F 65% 30.14 in 10.0 mi Calm Calm - N/A   Scattered Clouds
6:36 PM 32.0 °F - 24.8 °F 75% 30.16 in 10.0 mi Calm Calm - N/A   Scattered Clouds
6:56 PM 32.0 °F - 23.0 °F 69% 30.15 in 10.0 mi Calm Calm - N/A   Scattered Clouds
7:16 PM 30.2 °F - 23.0 °F 75% 30.16 in 10.0 mi Calm Calm - N/A   Clear
7:36 PM 28.4 °F - 23.0 °F 80% 30.16 in 10.0 mi Calm Calm - N/A   Clear
7:56 PM 30.2 °F - 23.0 °F 75% 30.16 in 10.0 mi Calm Calm - N/A   Clear
8:16 PM 28.4 °F - 23.0 °F 80% 30.18 in 10.0 mi Calm Calm - N/A   Clear
8:36 PM 24.8 °F - 21.2 °F 86% 30.18 in 10.0 mi Calm Calm - N/A   Clear
8:56 PM 24.8 °F - 21.2 °F 86% 30.18 in 10.0 mi Calm Calm - N/A   Clear
9:16 PM 23.0 °F 18.4 °F 21.2 °F 93% 30.19 in 10.0 mi NE 3.5 mph - N/A   Clear
9:36 PM 24.8 °F 17.9 °F 21.2 °F 86% 30.19 in 10.0 mi SE 5.8 mph - N/A   Clear
9:56 PM 24.8 °F - 21.2 °F 86% 30.19 in 10.0 mi Calm Calm - N/A   Clear
10:16 PM 23.0 °F 18.4 °F 19.4 °F 86% 30.20 in 10.0 mi West 3.5 mph - N/A   Clear
10:36 PM 21.2 °F 16.4 °F 19.4 °F 93% 30.20 in 10.0 mi ESE 3.5 mph - N/A   Clear
10:56 PM 23.0 °F 18.4 °F 19.4 °F 86% 30.20 in 10.0 mi ESE 3.5 mph - N/A   Clear
11:16 PM 21.2 °F - 17.6 °F 86% 30.21 in 10.0 mi Calm Calm - N/A   Clear
11:35 PM 19.4 °F - 15.8 °F 86% 30.22 in 10.0 mi Calm Calm - N/A   Clear
11:56 PM 21.2 °F - 17.6 °F 86% 30.22 in 10.0 mi Calm Calm - N/A   Clear